Regional Weather Roundup
Issued by NWS Northern Indiana

Home | Current Version | Previous Version | Text Only | Print | Product List | Glossary Off
Versions: 1 2 3 4 5 6 7 8 9 10 11 12 13 14 15 16 17 18 19 20 21 22 23 24 25 26 27 28 29 30 31 32 33 34 35 36 37 38 39 40 41 42 43 44 45 46 47 48 49 50

000
ASUS43 KIWX 232300
RWRIWX

KIWX WEATHER ROUNDUP
NATIONAL WEATHER SERVICE NORTHERN INDIANA
700 PM EDT THU MAR 23 2017

NOTE: "FAIR" INDICATES FEW OR NO CLOUDS BELOW 12,000 FEET WITH NO
SIGNIFICANT WEATHER AND/OR OBSTRUCTIONS TO VISIBILITY.

* THESE STATIONS ARE NOT UNDER NWS QUALITY CONTROL. THEY ALSO MAY NOT
  REPORT WEATHER SUCH AS PRECIPITATION OR FOG.

INZ001>027-240000-
NORTHERN INDIANA

CITY           SKY/WX    TMP DP  RH WIND       PRES   REMARKS
GARY*          CLOUDY    50  25  37 SE9       30.14F
MICHIGAN CITY* CLOUDY    46  27  46 SE7G16    30.16F
SOUTH BEND     CLOUDY    45  22  40 SE17      30.21F
ELKHART*       MOSUNNY   46  21  36 SE15      30.21F
GOSHEN         CLOUDY    46  22  38 SE15      30.21F
MONTICELLO*    CLOUDY    51  24  35 S6        30.18F
ANGOLA*        PTCLDY    46  30  53 S14       30.23F
FORT WAYNE     MOCLDY    48  26  42 SE10      30.24F
PERU/GRISSOM   CLOUDY    51  32  48 SE8       30.18F

$$
INZ028>050-240000-
CENTRAL INDIANA

CITY           SKY/WX    TMP DP  RH WIND       PRES   REMARKS
LAFAYETTE      CLOUDY    51  27  39 SE7       30.17F
KOKOMO*        CLOUDY    51  32  48 SE9       30.21F
MUNCIE*        CLOUDY    53  24  32 SE8       30.22F
INDIANAPOLIS   CLOUDY    55  24  30 SE10      30.21F

$$
MIZ043>046-050>051-056>058-064>065-071>073-077>080-240000-
SOUTHWEST LOWER MICHIGAN

CITY           SKY/WX    TMP DP  RH WIND       PRES   REMARKS
BATTLE CREEK   CLOUDY    47  14  26 S15G21    30.22F
BENTON HARBOR  CLOUDY    46  20  35 SE14G24   30.17F
COLDWATER*     MOCLDY    46  17  32 SE8G16    30.23S
HILLSDALE*     CLOUDY    45  16  31 SE9G17    30.23S
HOLLAND        CLOUDY    46  16  30 SE12      30.18F
GRAND RAPIDS   CLOUDY    46  13  26 S14       30.19F
KALAMAZOO      CLOUDY    46  17  31 S10       30.21F
STURGIS*       CLOUDY    46  22  38 S12G17    30.21F
THREE RIVERS*  CLOUDY    46  19  35 S13       30.22F

$$
OHZ001>008-015>018-024>025-240000-
NORTHWEST OHIO

CITY           SKY/WX    TMP DP  RH WIND       PRES   REMARKS
DEFIANCE       MOCLDY    48  15  26 SE7       30.26F
FINDLAY        MOCLDY    51  13  21 SE12      30.25F
TOLEDO EXPRESS CLOUDY    44  26  49 E12       30.26F
TOLEDO METCALF CLOUDY    41  29  62 E10       30.29F
LIMA           CLOUDY    50  23  34 S14       30.26F

$$
AND FOR LAKE MICHIGAN COASTAL AND OPEN LAKE BUOY OBSERVATIONS

STATION/POSITION TEMP    WIND        PRES    VSBY  WAVE
                 AIR SEA DIR/SP/G                  HT/PER
                 (F)     (DEG/KT/KT) (MB)    (MI)  (FT/S)
CALUMET HARBOR    48     140/ 11/ 17 1019.7F
MICHIGAN CITY     47     140/ 16/ 19   N/A
BURNS HARBOR      48     140/ 10/ 20 1021.3F

$$
&&



USA.gov is the U.S. government's official web portal to all federal, state and local government web resources and services.